Tracking 30922 objects as of 2-Jul-2025
HD Live streaming from Space Station
objects crossing your sky now

STARLINK-5149

Track STARLINK-5149 now!
10-day predictions
STARLINK-5149 is classified as:


NORAD ID: 53981
Int'l Code: 2022-125T
Perigee: 546.2 km
Apogee: 547.5 km
Inclination: 53.2 °
Period: 95.4 minutes
Semi major axis: 6917 km
RCS: Unknown
Launch date: October 5, 2022
Source: United States (US)
Launch site: AIR FORCE WESTERN TEST RANGE (AFWTR)
Your satellite tracking list
OBJECT H
Track 1 satellite(s)




NASA's NSSDC Master Catalog

Two Line Element Set (TLE):
1 53981U 22125T   25182.48952508 -.00000020  00000-0  16798-4 0  9995
2 53981  53.2174 251.5791 0000929  77.5649 282.5447 15.08841075151680
Source of the keplerian elements: AFSPC